Location: Baumgarten
(49.0970°N, 12.7493°E)
Time: 03:02:22
(UTC+00:00)

Cosmos 1328 Rocket - Pass Details

Date: 05 July 2020
Orbit: 601 x 627 km, 82.5° (Epoch: 04 August)

Event Time Altitude Azimuth Distance (km) Brightness Sun altitude
Rises 22:42:20 0° 349° (N) 2,867 8.7 -17.9°
Reaches altitude 10° 22:44:33 10° 350° (N) 1,958 7.4 -17.9°
Maximum altitude 22:48:53 87° 265° (W) 610 3.4 -18.0°
Enters shadow 22:50:25 40° 174° (S) 897 3.8 -18.0°
